Total_Precipitation_Accumulation
1.20 1.32 1.91 2.56 2.87 2.30 1.86 1.43 1.09 1.01 0.96 0.69 0.55 0.56 0.79 1.07 1.38 1.68 1.51 1.27 0.94 0.80 0.87 1.26 1.61 1.45 1.31 1.19 1.18 1.24 1.25 1.34 1.20 1.11 0.95 0.79 0.68 0.66 0.66 0.57 0.53 0.57 0.51 0.47 0.50 0.60 0.62 0.66 0.67
1.09 1.91 2.67 3.27 2.76 1.95 1.78 1.45 1.24 1.00 0.71 0.55 0.43 0.44 0.60 0.59 0.55 0.86 1.49 1.48 0.92 0.74 0.79 1.11 1.63 1.45 1.39 1.34 1.33 1.29 1.30 1.38 1.21 1.08 0.92 0.79 0.73 0.74 0.75 0.83 0.86 0.73 0.55 0.50 0.50 0.61 0.64 0.62 0.67
1.34 2.52 3.48 3.23 2.20 1.78 1.86 1.48 1.11 0.77 0.53 0.51 0.49 0.44 0.59 0.74 0.72 1.12 1.55 1.22 0.89 0.74 0.84 1.27 1.64 1.43 1.33 1.34 1.41 1.34 1.39 1.37 1.22 1.05 0.85 0.78 0.80 0.90 0.99 1.03 0.92 0.72 0.59 0.55 0.57 0.63 0.67 0.62 0.59
1.76 2.89 3.01 2.39 2.03 1.68 1.49 1.24 0.90 0.83 0.63 0.44 0.44 0.53 0.53 0.73 0.80 1.06 1.10 0.94 0.91 0.86 0.82 1.21 1.55 1.41 1.30 1.32 1.34 1.29 1.29 1.32 1.27 1.05 0.85 0.81 0.81 0.83 0.89 0.97 0.91 0.73 0.62 0.57 0.63 0.68 0.69 0.66 0.62
2.22 2.71 2.60 2.18 1.96 1.59 1.19 1.00 0.84 0.85 0.77 0.52 0.42 0.65 0.81 1.00 1.06 1.07 1.05 1.04 0.89 0.85 0.80 1.01 1.34 1.25 1.16 1.21 1.30 1.32 1.33 1.31 1.24 1.02 0.91 0.90 0.86 0.80 0.86 0.87 0.81 0.67 0.60 0.60 0.66 0.70 0.74 0.69 0.66
2.49 2.42 2.53 2.42 2.19 1.76 1.38 1.07 0.86 0.77 0.69 0.54 0.52 0.70 1.00 1.38 1.43 1.33 1.06 1.06 1.02 0.91 0.81 0.84 1.14 1.15 1.09 1.10 1.18 1.23 1.25 1.26 1.20 0.96 0.87 0.85 0.84 0.81 0.79 0.81 0.79 0.70 0.70 0.71 0.69 0.68 0.72 0.75 0.71
2.42 2.27 2.20 2.05 2.23 2.23 1.67 1.07 0.99 0.80 0.75 0.63 0.53 0.79 1.04 1.48 1.35 1.34 1.21 1.12 1.19 1.00 0.88 0.83 0.96 0.99 1.13 1.22 1.19 1.13 1.13 1.16 1.17 1.01 0.91 0.87 0.78 0.70 0.69 0.70 0.71 0.73 0.80 0.77 0.70 0.66 0.66 0.70 0.72
1.99 1.90 1.70 1.79 2.09 2.21 1.49 0.89 0.73 0.75 0.71 0.46 0.49 0.75 1.01 1.22 1.19 1.33 1.33 1.21 1.13 1.02 0.92 0.81 0.89 0.90 0.85 0.95 1.15 1.22 1.24 1.24 1.24 1.07 0.94 0.88 0.74 0.66 0.67 0.60 0.64 0.71 0.84 0.91 0.83 0.76 0.72 0.72 0.77
1.87 1.95 1.91 2.06 1.96 1.78 1.20 0.97 0.81 0.69 0.64 0.52 0.48 0.56 0.85 0.93 1.03 1.24 1.31 1.24 1.09 0.93 0.83 0.76 0.79 0.89 0.93 0.89 1.00 1.32 1.35 1.35 1.28 1.11 1.00 0.88 0.69 0.60 0.63 0.59 0.76 0.79 0.84 0.91 0.93 0.94 0.89 0.83 0.77
1.90 2.03 2.02 1.76 1.34 1.23 1.03 0.93 0.85 0.73 0.74 0.65 0.57 0.63 0.87 1.01 1.03 1.10 1.09 1.01 0.94 0.91 0.80 0.69 0.68 0.70 0.77 0.83 0.96 1.13 1.13 1.13 1.08 1.21 1.10 0.96 0.90 0.79 0.51 0.58 0.81 0.98 1.02 0.97 0.93 1.02 0.91 0.72 0.57
1.49 1.58 1.35 1.35 1.03 0.88 0.89 0.83 0.75 0.83 0.89 0.61 0.61 0.72 0.90 1.03 1.02 1.05 1.02 0.88 0.83 0.83 0.77 0.64 0.56 0.52 0.55 0.69 0.86 0.95 1.09 1.20 1.13 1.07 1.05 1.02 0.90 0.72 0.59 0.65 0.68 0.73 0.80 0.74 0.77 0.76 0.60 0.53 0.55
1.28 1.14 0.96 1.05 0.87 0.86 0.87 0.73 0.67 0.72 0.77 0.56 0.54 0.65 0.85 0.93 0.96 1.00 0.92 0.84 0.73 0.71 0.73 0.66 0.49 0.43 0.41 0.48 0.57 0.68 0.82 0.95 0.98 0.82 0.78 0.86 0.88 0.77 0.64 0.65 0.65 0.64 0.69 0.78 0.82 0.80 0.69 0.65 0.64
1.41 1.17 0.98 0.94 0.89 0.81 0.77 0.73 0.65 0.64 0.61 0.59 0.62 0.75 0.82 0.91 0.97 1.02 0.95 0.79 0.69 0.68 0.70 0.64 0.52 0.48 0.41 0.43 0.44 0.45 0.64 0.81 0.91 0.93 0.80 0.78 0.79 0.78 0.71 0.60 0.63 0.58 0.62 0.69 0.73 0.76 0.76 0.81 0.78
1.21 1.08 1.04 1.02 0.91 0.74 0.76 0.75 0.64 0.73 0.66 0.66 0.64 0.70 0.79 0.88 0.87 0.78 0.76 0.67 0.56 0.55 0.65 0.64 0.62 0.61 0.52 0.43 0.43 0.44 0.52 0.64 0.72 0.88 0.89 0.83 0.75 0.71 0.74 0.70 0.71 0.72 0.70 0.70 0.70 0.69 0.81 0.85 0.85
0.92 1.08 1.10 1.01 0.90 0.81 0.77 0.90 0.76 0.80 0.76 0.78 0.71 0.66 0.73 0.76 0.72 0.64 0.56 0.52 0.51 0.50 0.53 0.53 0.56 0.64 0.63 0.59 0.55 0.53 0.61 0.64 0.70 0.77 0.77 0.84 0.75 0.68 0.74 0.77 0.78 0.80 0.80 0.79 0.81 0.82 0.89 0.87 0.90
1.00 1.24 1.42 1.13 0.98 0.96 0.98 1.07 0.89 0.92 0.86 0.83 0.76 0.73 0.68 0.70 0.66 0.62 0.55 0.46 0.46 0.45 0.45 0.50 0.48 0.57 0.67 0.72 0.73 0.75 0.76 0.79 0.85 0.82 0.78 0.78 0.73 0.71 0.80 0.82 0.86 0.92 0.84 0.81 0.88 0.94 1.00 0.98 1.01
1.26 1.24 1.22 1.15 0.94 0.93 0.99 0.99 0.88 0.98 0.91 0.79 0.70 0.66 0.58 0.60 0.61 0.56 0.52 0.43 0.40 0.41 0.44 0.49 0.51 0.58 0.65 0.71 0.81 0.89 0.95 1.02 1.14 1.10 1.06 1.00 0.88 0.89 0.96 1.02 1.04 1.06 1.08 1.01 0.91 0.94 1.01 1.12 1.15
1.21 0.91 0.83 0.87 0.87 0.82 0.88 0.82 0.81 0.92 0.82 0.73 0.63 0.55 0.48 0.49 0.53 0.52 0.51 0.45 0.43 0.41 0.44 0.50 0.58 0.66 0.76 0.91 1.11 1.31 1.39 1.56 1.76 1.70 1.56 1.37 1.20 1.17 1.28 1.26 1.21 1.27 1.37 1.39 1.19 1.24 1.19 1.16 1.24
0.76 0.68 0.68 0.64 0.62 0.68 0.67 0.68 0.71 0.71 0.68 0.60 0.50 0.45 0.42 0.37 0.42 0.44 0.45 0.43 0.36 0.33 0.38 0.44 0.50 0.60 0.73 0.94 1.23 1.64 1.85 1.99 2.00 2.02 1.91 1.70 1.49 1.50 1.67 1.64 1.62 1.63 1.62 1.58 1.53 1.67 1.60 1.35 1.27
0.63 0.65 0.64 0.61 0.56 0.56 0.52 0.51 0.54 0.54 0.46 0.42 0.39 0.35 0.35 0.33 0.36 0.33 0.33 0.33 0.28 0.24 0.24 0.34 0.41 0.51 0.65 0.94 1.24 1.57 1.91 1.99 2.00 2.02 1.98 1.85 1.72 1.73 1.77 1.98 2.08 2.06 2.16 2.13 1.95 2.09 2.09 1.72 1.49
0.58 0.63 0.61 0.62 0.61 0.55 0.48 0.48 0.52 0.47 0.37 0.32 0.31 0.31 0.32 0.29 0.31 0.30 0.29 0.27 0.25 0.21 0.19 0.25 0.31 0.45 0.75 1.09 1.41 1.60 1.88 1.98 2.03 1.99 2.01 2.03 1.98 1.89 1.90 2.02 2.19 2.21 2.28 2.37 2.44 2.39 2.48 2.26 1.88
0.61 0.44 0.40 0.43 0.56 0.61 0.48 0.55 0.49 0.42 0.43 0.37 0.33 0.33 0.33 0.33 0.29 0.28 0.30 0.27 0.21 0.18 0.17 0.20 0.27 0.47 0.81 1.15 1.41 1.65 2.00 2.10 2.06 2.09 2.08 2.09 2.11 2.07 2.15 2.17 2.28 2.31 2.33 2.42 2.52 2.49 2.63 2.67 2.28
0.46 0.36 0.34 0.37 0.46 0.49 0.36 0.38 0.42 0.40 0.45 0.46 0.39 0.39 0.36 0.32 0.27 0.25 0.25 0.24 0.22 0.20 0.20 0.24 0.40 0.59 0.85 1.05 1.31 1.67 1.93 2.05 2.18 2.11 2.09 2.10 2.16 2.18 2.22 2.28 2.45 2.44 2.42 2.39 2.60 2.65 2.74 2.66 2.57
0.32 0.37 0.40 0.39 0.43 0.45 0.25 0.31 0.42 0.38 0.35 0.36 0.37 0.35 0.32 0.29 0.27 0.27 0.26 0.25 0.26 0.27 0.31 0.38 0.53 0.68 0.91 1.09 1.29 1.49 1.75 1.88 2.01 2.11 2.05 2.05 2.12 2.22 2.12 2.03 2.17 2.24 2.27 2.26 2.45 2.62 2.75 2.73 2.76
0.30 0.49 0.66 0.62 0.61 0.49 0.25 0.33 0.46 0.34 0.27 0.28 0.30 0.31 0.29 0.32 0.33 0.37 0.38 0.42 0.48 0.51 0.53 0.61 0.70 0.81 0.93 1.03 1.14 1.23 1.40 1.55 1.58 1.75 1.84 1.97 1.98 2.05 2.09 1.97 1.96 1.99 1.94 1.99 2.11 2.17 2.24 2.39 2.54
0.26 0.39 0.62 0.64 0.54 0.45 0.36 0.51 0.53 0.35 0.29 0.29 0.29 0.34 0.36 0.43 0.49 0.59 0.66 0.75 0.82 0.81 0.80 0.87 0.92 0.90 0.89 0.94 1.01 1.05 1.13 1.22 1.28 1.31 1.34 1.52 1.69 1.73 1.82 1.81 1.76 1.80 1.84 1.85 1.93 1.94 1.95 1.98 2.05
0.23 0.29 0.35 0.44 0.36 0.37 0.38 0.53 0.51 0.38 0.37 0.36 0.37 0.42 0.51 0.68 0.78 0.87 0.96 0.98 0.98 0.95 0.91 0.92 0.95 0.92 0.90 0.90 0.90 0.86 0.86 0.93 1.04 1.06 1.12 1.18 1.27 1.28 1.35 1.45 1.52 1.61 1.66 1.72 1.86 1.93 1.92 1.88 1.85
0.20 0.30 0.40 0.60 0.67 0.59 0.50 0.61 0.63 0.53 0.45 0.42 0.46 0.56 0.74 1.00 1.13 1.25 1.34 1.24 1.15 1.15 1.20 1.09 0.99 0.91 0.87 0.87 0.87 0.80 0.77 0.83 0.87 0.87 0.92 0.91 0.92 0.94 1.00 1.11 1.28 1.50 1.63 1.67 1.74 1.79 1.87 1.91 1.86
0.21 0.32 0.44 0.65 0.72 0.87 0.94 1.01 0.80 0.67 0.64 0.71 0.82 0.90 1.11 1.38 1.53 1.63 1.63 1.53 1.32 1.19 1.18 1.12 1.00 0.87 0.76 0.75 0.80 0.80 0.75 0.77 0.82 0.81 0.76 0.69 0.72 0.79 0.91 0.95 1.09 1.25 1.43 1.61 1.76 1.78 1.78 1.81 1.80
0.32 0.47 0.64 1.02 0.99 0.88 1.06 1.21 0.92 0.75 0.76 0.79 0.86 0.99 1.21 1.34 1.40 1.45 1.40 1.38 1.27 1.17 1.08 1.04 0.92 0.77 0.71 0.74 0.77 0.78 0.70 0.65 0.69 0.71 0.73 0.63 0.58 0.62 0.72 0.85 1.05 1.16 1.25 1.30 1.38 1.46 1.51 1.54 1.58